Location: Unspecified
(0.0000°N, 0.0000°E)
Time: 22:33:59
(UTC+00:00)

DMSP F15 (USA 147) - Pass Details

Date: 06 October 2020
Orbit: 829 x 845 km, 99.0° (Epoch: 26 October)

Event Time Altitude Azimuth Distance (km) Brightness Sun altitude
Rises 03:33:07 0° 16° (NNE) 3,355 8.4 -33.6°
Reaches altitude 10° 03:35:28 10° 18° (NNE) 2,425 7.7 -33.0°
Enters shadow 03:36:19 15° 19° (NNE) 2,092 7.3 -32.8°
Exits shadow 03:47:45 - 189° (S) 3,054 8.1 -29.9°
Sets 03:48:34 0° 189° (S) 3,378 8.3 -29.7°
